HP3ICC-18 Weather Reports


Display with metric or nautical units.
time (UTC)temp
F
wind
direction
speed
MPH
gust
MPH
rain 1hr
in
rain 24hr
in
rain mn
in
humidity
%
barometer
mb
20260504110310 77 136 1.0 1.0 0.00 0.00 0.00 94 1010.0
20260504110210 77 136 1.0 1.0 0.00 0.00 0.00 94 1010.0
20260504100309 77 136 1.0 1.0 0.00 0.00 0.00 94 1010.0
20260504100209 77 136 1.0 1.0 0.00 0.00 0.00 94 1010.0
20260504080306 77 136 1.0 1.0 0.00 0.00 0.00 94 1010.0
20260504080206 77 136 1.0 1.0 0.00 0.00 0.00 94 1010.0
20260504070304 80 180 1.0 1.0 0.00 0.00 0.00 90 1010.0
20260504070204 80 180 1.0 1.0 0.00 0.00 0.00 90 1010.0
20260504060202 80 180 1.0 1.0 0.00 0.00 0.00 90 1011.0
20260504050301 80 254 0.0 0.0 0.00 0.00 0.00 90 1011.0
20260504050201 80 254 0.0 0.0 0.00 0.00 0.00 90 1011.0
20260504044301 80 254 0.0 0.0 0.00 0.00 0.00 90 1011.0
20260504044201 80 254 0.0 0.0 0.00 0.00 0.00 90 1011.0
20260504042300 80 245 0.0 0.0 0.00 0.00 0.00 90 1011.0
20260504042200 80 245 0.0 0.0 0.00 0.00 0.00 90 1011.0
20260504040300 80 245 0.0 0.0 0.00 0.00 0.00 90 1011.0
20260504040159 80 245 0.0 0.0 0.00 0.00 0.00 90 1011.0
20260504034259 80 245 0.0 0.0 0.00 0.00 0.00 90 1011.0
20260504034159 80 245 0.0 0.0 0.00 0.00 0.00 90 1011.0
20260504032259 80 199 0.0 0.0 0.00 0.00 0.00 90 1011.0
20260504032158 80 199 0.0 0.0 0.00 0.00 0.00 90 1011.0
20260504030258 80 199 0.0 0.0 0.00 0.00 0.00 90 1011.0
20260504030158 80 199 0.0 0.0 0.00 0.00 0.00 90 1011.0
20260504024257 82 239 1.0 1.0 0.00 0.00 0.00 86 1011.0
20260504024157 82 239 1.0 1.0 0.00 0.00 0.00 86 1011.0
20260504022257 82 239 1.0 1.0 0.00 0.00 0.00 86 1011.0
20260504022157 82 239 1.0 1.0 0.00 0.00 0.00 86 1011.0
20260504020256 82 239 1.0 1.0 0.00 0.00 0.00 86 1011.0
20260504020156 82 239 1.0 1.0 0.00 0.00 0.00 86 1011.0
20260504014256 82 239 1.0 1.0 0.00 0.00 0.00 86 1011.0
20260504014156 82 239 1.0 1.0 0.00 0.00 0.00 86 1011.0
20260504012256 82 239 1.0 1.0 0.00 0.00 0.00 86 1010.0
20260504012155 82 239 1.0 1.0 0.00 0.00 0.00 86 1010.0
20260504010255 82 239 1.0 1.0 0.00 0.00 0.00 86 1010.0
20260504010155 82 239 1.0 1.0 0.00 0.00 0.00 86 1010.0
20260504004254 83 278 1.0 3.0 0.00 0.00 0.00 80 1010.0
20260504004154 83 278 1.0 3.0 0.00 0.00 0.00 80 1010.0
20260504002254 83 278 1.0 3.0 0.00 0.00 0.00 80 1009.0
20260504002154 83 278 1.0 3.0 0.00 0.00 0.00 80 1009.0
20260504000253 83 278 1.0 3.0 0.00 0.00 0.00 80 1009.0
20260504000153 83 278 1.0 3.0 0.00 0.00 0.00 80 1009.0
20260503234253 83 278 1.0 3.0 0.00 0.00 0.00 80 1009.0
20260503234153 83 278 1.0 3.0 0.00 0.00 0.00 80 1009.0
20260503232252 83 278 1.0 3.0 0.01 0.00 0.00 80 1009.0
20260503232152 83 278 1.0 3.0 0.01 0.00 0.00 80 1009.0
20260503230252 83 278 2.0 3.0 0.00 0.00 0.00 80 1009.0
20260503230151 83 278 2.0 3.0 0.00 0.00 0.00 80 1009.0
20260503224251 85 274 4.0 7.0 0.00 0.00 0.00 72 1009.0
20260503224151 85 274 4.0 7.0 0.00 0.00 0.00 72 1009.0
20260503222251 85 274 4.0 7.0 0.00 0.00 0.00 72 1008.0
20260503222150 85 274 4.0 7.0 0.00 0.00 0.00 72 1008.0
20260503220250 85 274 4.0 7.0 0.00 0.00 0.00 72 1008.0
20260503220150 85 274 4.0 7.0 0.00 0.00 0.00 72 1008.0
20260503214250 85 274 4.0 7.0 0.00 0.00 0.00 72 1008.0
20260503214149 85 274 4.0 7.0 0.00 0.00 0.00 72 1008.0
20260503212249 85 274 4.0 7.0 0.00 0.00 0.00 72 1008.0
20260503212149 85 274 4.0 7.0 0.00 0.00 0.00 72 1008.0
20260503210249 85 274 4.0 7.0 0.00 0.00 0.00 72 1008.0
20260503210148 85 274 4.0 7.0 0.00 0.00 0.00 72 1008.0
20260503204248 89 327 3.0 4.0 0.00 0.00 0.00 60 1008.0
20260503204148 89 327 3.0 4.0 0.00 0.00 0.00 60 1008.0
20260503202248 89 327 3.0 4.0 0.01 0.00 0.00 60 1008.0
20260503202147 89 327 3.0 4.0 0.01 0.00 0.00 60 1008.0
20260503200247 89 327 3.0 4.0 0.00 0.00 0.00 60 1008.0
20260503200147 89 327 3.0 4.0 0.00 0.00 0.00 60 1008.0
20260503194247 89 327 3.0 4.0 0.01 0.00 0.00 60 1008.0
20260503194147 89 327 3.0 4.0 0.01 0.00 0.00 60 1008.0
20260503192246 89 327 3.0 4.0 0.00 0.00 0.00 60 1009.0
20260503192146 89 327 3.0 4.0 0.00 0.00 0.00 60 1009.0
20260503190246 89 327 3.0 4.0 0.00 0.00 0.00 60 1009.0
20260503190146 89 327 3.0 4.0 0.00 0.00 0.00 60 1009.0
20260503184245 89 327 3.0 4.0 0.00 0.00 0.00 60 1009.0
20260503184145 89 327 3.0 4.0 0.00 0.00 0.00 60 1009.0
20260503182245 86 352 2.0 3.0 0.00 0.00 0.00 63 1010.0
20260503182145 86 352 2.0 3.0 0.00 0.00 0.00 63 1010.0
20260503180245 86 352 1.0 3.0 0.00 0.00 0.00 63 1010.0
20260503180144 86 352 1.0 3.0 0.00 0.00 0.00 63 1010.0
20260503174244 86 352 2.0 3.0 0.00 0.00 0.00 63 1010.0
20260503174144 86 352 2.0 3.0 0.00 0.00 0.00 63 1010.0
20260503172244 84 43 2.0 2.0 0.00 0.00 0.00 64 1011.0
20260503172143 84 43 2.0 2.0 0.00 0.00 0.00 64 1011.0
20260503170243 84 43 2.0 2.0 0.00 0.00 0.00 64 1011.0
20260503170143 84 43 2.0 2.0 0.00 0.00 0.00 64 1011.0
20260503160141 82 103 2.0 2.0 0.00 0.00 0.00 74 1012.0
20260503150240 81 116 2.0 2.0 0.00 0.00 0.00 81 1012.0
20260503150139 81 116 2.0 2.0 0.00 0.00 0.00 81 1012.0
20260503140238 77 156 1.0 1.0 0.00 0.00 0.00 86 1012.0
20260503140137 77 156 1.0 1.0 0.00 0.00 0.00 86 1012.0
20260503130237 77 156 1.0 1.0 0.00 0.00 0.00 86 1012.0
20260503130136 77 156 1.0 1.0 0.00 0.00 0.00 86 1012.0
20260503120135 77 156 1.0 1.0 0.00 0.00 0.00 86 1011.0